{"data":{"norad_id":61628,"epoch":"2026-05-25T04:22:28.587648Z","epoch_age_seconds":55215,"freshness":"FRESH","line1":"1 61628U 24191H   26145.18227532  .00000462  00000+0  26286-4 0  9997","line2":"2 61628  43.0001  82.6259 0000690 262.9191  97.1582 15.27580537 89237","mean_motion":15.27580537,"eccentricity":6.9e-5,"inclination_deg":43.0001,"raan_deg":82.6259,"arg_perigee_deg":262.9191,"mean_anomaly_deg":97.1582,"bstar":2.6286e-5,"rev_number":8923,"period_min":94.266715575468,"perigee_km":482.57406633926,"apogee_km":483.52090979862,"semimajor_km":6861.1844880689,"source":"CELESTRAK","updated_at":"2026-05-25T13:38:19.407820Z"}}